COSMOS 2251 DEB, 36459

Orbit data source: Space-Track

COSMOS 2251 DEB, 36459 is space debris in LEO originally from a launch on Wed, 16 Jun 1993 UTC launched from the Plesetsk Missile And Space Complex (PKMTR). The debris from Iridium 33, an American commercial communications satellite, has been tracked extensively since its accidental collision with the defunct Russian satellite Cosmos 2251 in 2009. This event, occurring at high speed in low Earth orbit (LEO), generated thousands of pieces of space debris, significantly increasing the risk of further collisions. The Iridium 33 debris cloud has impacted space traffic management and orbital debris mitigation strategies, making it a subject of ongoing study in space situational awareness.

Loading next visibility...
Identifier
36459, 1993-036BBJ
Orbit
LEO
Country
Flag of CISCIS
Related business
Manufacturer
Unknown
Mission
Spacecraft
Bus & Motor
Unknown
Mass
Unknown
Launch date (UTC)
1993-06-16 (33 years ago)
Launch vehicle
Unknown
Launch site
Plesetsk Missile And Space Complex (PKMTR)
Object type
Payload
Rocket body
Debris
Shape & HBR
Unknown shape, 0.1 m
Radar Cross Section
Small (<0.1 m²)

Expand to show TLE details & history
Last TLE update: 2 weeks ago

TLE from 2 weeks ago
0 COSMOS 2251 DEB
1 36459U 93036BBJ 26222.51814821  .00000766  00000-0  29667-3 0  9994
2 36459  74.0404 284.1080 0117558 321.4163  37.8626 14.28035340113173
Epoch: 2026-08-10T12:26Z
TLE epoch observation values (Epoch: 2026-08-10T12:26:08.005Z)
Latitude
0.00008°
Longitude
138.57503°
Altitude
734.671 km
Speed
7.522 km/s
True Right ascension
18h 56m 25s
True Declination
0° 00' 00"
Sunlit
Object was in full shadow at epoch
Visualization orbit readout
Latitude
Unknown
Longitude
Unknown
Altitude
Unknown
Speed
Unknown
Apparent Right ascension
Unknown
Apparent Declination
Unknown
Sunlit
N/A
Visualization observer readout
Local Sidereal Time
15:18:27
Azimuth
Unknown
Elevation
Unknown
Doppler factor
Unknown
Orbital elements
Apogee altitude
880.274 km
Perigee altitude
711.6 km
Semi-major axis
7,174.074 km
Eccentricity
0.01176
Inclination
74.0404°
RAAN
284.108°
Arg. of periapsis
321.4163°
True anomaly
38.69909°
Mean anomaly
37.8626°
Eccentric anomaly
38.27987°
Mean motion
3.57186 °/min
Orbital period
100.79 mins
BSTAR
0.00029667
Loading maneuver chart data...
Computing Atmospheric mass density...

Documentation

Showing up to 5 results
|